Time,TemperatureF,DewpointF,PressureIn,WindDirection,WindDirectionDegrees,WindSpeedMPH,WindSpeedGustMPH,Humidity,HourlyPrecipIn,Conditions,Clouds,dailyrainin,SoftwareType,DateUTC
2013-01-20 00:04:00,47.0,27.0,-100.00,SSW,197,12.0,17.0,44,0.00,,,-99.99,,2013-01-20 05:04:00,
2013-01-20 00:12:00,49.0,30.0,-100.00,WSW,238,13.0,17.0,45,0.00,,,-99.99,,2013-01-20 05:12:00,
2013-01-20 00:23:00,47.0,28.0,-100.00,SW,235,12.0,17.0,45,0.00,,,-99.99,,2013-01-20 05:23:00,
2013-01-20 00:33:00,47.0,27.0,-100.00,West,261,12.0,17.0,45,0.00,,,-99.99,,2013-01-20 05:33:00,
2013-01-20 00:43:00,47.0,27.0,-100.00,SW,224,12.0,17.0,45,0.00,,,-99.99,,2013-01-20 05:43:00,
2013-01-20 00:53:00,47.0,28.0,-100.00,SW,221,12.0,17.0,46,0.00,,,-99.99,,2013-01-20 05:53:00,
2013-01-20 01:02:00,48.0,28.0,-100.00,WSW,256,13.0,17.0,45,0.00,,,-99.99,,2013-01-20 06:02:00,
2013-01-20 01:12:00,49.0,30.0,-100.00,WSW,252,11.0,17.0,46,0.00,,,-99.99,,2013-01-20 06:12:00,
2013-01-20 01:22:00,49.0,30.0,-100.00,SSW,201,12.0,17.0,47,0.00,,,-99.99,,2013-01-20 06:22:00,
2013-01-20 01:33:00,48.0,30.0,-100.00,WSW,245,12.0,17.0,47,0.00,,,-99.99,,2013-01-20 06:33:00,
2013-01-20 01:43:00,48.0,30.0,-100.00,SW,227,12.0,17.0,49,0.00,,,-99.99,,2013-01-20 06:43:00,
2013-01-20 01:52:00,47.0,30.0,-100.00,WSW,238,14.0,17.0,50,0.00,,,-99.99,,2013-01-20 06:52:00,
2013-01-20 02:02:00,48.0,32.0,-100.00,SW,216,14.0,17.0,50,0.00,,,-99.99,,2013-01-20 07:02:00,
2013-01-20 02:12:00,49.0,32.0,-100.00,WSW,249,14.0,17.0,51,0.00,,,-99.99,,2013-01-20 07:12:00,
2013-01-20 02:22:00,49.0,32.0,-100.00,SW,227,17.0,22.0,53,0.00,,,-99.99,,2013-01-20 07:22:00,
2013-01-20 02:32:00,49.0,32.0,-100.00,SW,224,16.0,22.0,51,0.00,,,-99.99,,2013-01-20 07:32:00,
2013-01-20 02:42:00,47.0,32.0,-100.00,WSW,252,16.0,22.0,53,0.00,,,-99.99,,2013-01-20 07:42:00,
2013-01-20 02:52:00,46.0,32.0,-100.00,SW,227,14.0,22.0,54,0.00,,,-99.99,,2013-01-20 07:52:00,
2013-01-20 03:02:00,46.0,32.0,-100.00,WSW,241,14.0,22.0,55,0.00,,,-99.99,,2013-01-20 08:02:00,
2013-01-20 03:12:00,46.0,32.0,-100.00,SW,235,13.0,22.0,55,0.00,,,-99.99,,2013-01-20 08:12:00,
2013-01-20 03:22:00,47.0,32.0,-100.00,SW,225,13.0,22.0,58,0.00,,,-99.99,,2013-01-20 08:22:00,
2013-01-20 03:32:00,47.0,32.0,-100.00,WSW,241,13.0,22.0,56,0.00,,,-99.99,,2013-01-20 08:32:00,
2013-01-20 03:42:00,46.0,32.0,-100.00,SSW,211,13.0,22.0,56,0.00,,,-99.99,,2013-01-20 08:42:00,
2013-01-20 03:52:00,47.0,32.0,-100.00,SW,220,17.0,22.0,56,0.00,,,-99.99,,2013-01-20 08:52:00,
2013-01-20 04:02:00,47.0,32.0,-100.00,SW,214,14.0,22.0,59,0.00,,,-99.99,,2013-01-20 09:02:00,
2013-01-20 04:12:00,46.0,32.0,-100.00,WSW,240,16.0,22.0,58,0.00,,,-99.99,,2013-01-20 09:12:00,
2013-01-20 04:22:00,48.0,34.0,-100.00,SSW,211,17.0,22.0,59,0.00,,,-99.99,,2013-01-20 09:22:00,
2013-01-20 04:33:00,48.0,34.0,-100.00,WSW,238,18.0,22.0,59,0.00,,,-99.99,,2013-01-20 09:33:00,
2013-01-20 04:42:00,47.0,34.0,-100.00,WSW,237,18.0,22.0,60,0.00,,,-99.99,,2013-01-20 09:42:00,
2013-01-20 04:52:00,46.0,32.0,-100.00,SW,228,18.0,22.0,59,0.00,,,-99.99,,2013-01-20 09:52:00,
2013-01-20 05:02:00,47.0,32.0,-100.00,WSW,241,17.0,22.0,59,0.00,,,-99.99,,2013-01-20 10:02:00,
2013-01-20 05:12:00,47.0,32.0,-100.00,WSW,242,16.0,22.0,60,0.00,,,-99.99,,2013-01-20 10:12:00,
2013-01-20 05:23:00,45.0,32.0,-100.00,WSW,256,16.0,22.0,59,0.00,,,-99.99,,2013-01-20 10:23:00,
2013-01-20 05:32:00,45.0,30.0,-100.00,SW,230,20.0,28.0,56,0.00,,,-99.99,,2013-01-20 10:32:00,
2013-01-20 05:42:00,45.0,28.0,-100.00,SW,228,19.0,28.0,51,0.00,,,-99.99,,2013-01-20 10:42:00,
2013-01-20 05:52:00,44.0,27.0,-100.00,SSW,213,22.0,28.0,49,0.00,,,-99.99,,2013-01-20 10:52:00,
2013-01-20 06:03:00,43.0,27.0,-100.00,WSW,245,17.0,28.0,51,0.00,,,-99.99,,2013-01-20 11:03:00,
2013-01-20 06:12:00,43.0,28.0,-100.00,SSW,197,16.0,16.0,53,0.00,,,-99.99,,2013-01-20 11:12:00,
2013-01-20 06:22:00,42.0,27.0,-100.00,SW,216,14.0,16.0,53,0.00,,,-99.99,,2013-01-20 11:22:00,
2013-01-20 06:33:00,41.0,27.0,-100.00,WSW,252,14.0,21.0,53,0.00,,,-99.99,,2013-01-20 11:33:00,
2013-01-20 06:43:00,41.0,27.0,-100.00,WSW,245,13.0,21.0,54,0.00,,,-99.99,,2013-01-20 11:43:00,
2013-01-20 06:53:00,40.0,25.0,-100.00,SW,221,16.0,21.0,51,0.00,,,-99.99,,2013-01-20 11:53:00,
2013-01-20 07:03:00,40.0,23.0,-100.00,SW,227,15.0,21.0,51,0.00,,,-99.99,,2013-01-20 12:03:00,
2013-01-20 07:13:00,40.0,23.0,-100.00,SW,228,15.0,21.0,51,0.00,,,-99.99,,2013-01-20 12:13:00,
2013-01-20 07:23:00,39.0,25.0,-100.00,SSW,201,16.0,21.0,53,0.00,,,-99.99,,2013-01-20 12:23:00,
2013-01-20 07:33:00,37.0,23.0,-100.00,WSW,244,16.0,21.0,54,0.00,,,-99.99,,2013-01-20 12:33:00,
2013-01-20 07:43:00,37.0,19.0,-100.00,SSW,204,16.0,21.0,47,0.00,,,-99.99,,2013-01-20 12:43:00,
2013-01-20 07:53:00,36.0,19.0,-100.00,SW,234,14.0,21.0,49,0.00,,,-99.99,,2013-01-20 12:53:00,
2013-01-20 08:03:00,35.0,21.0,-100.00,WSW,240,14.0,21.0,53,0.00,,,-99.99,,2013-01-20 13:03:00,
2013-01-20 08:12:00,34.0,19.0,-100.00,SSW,206,11.0,21.0,54,0.00,,,-99.99,,2013-01-20 13:12:00,
2013-01-20 08:23:00,33.0,19.0,-100.00,SSW,199,9.0,21.0,56,0.00,,,-99.99,,2013-01-20 13:23:00,
2013-01-20 08:33:00,32.0,19.0,-100.00,WSW,240,9.0,21.0,56,0.00,,,-99.99,,2013-01-20 13:33:00,
2013-01-20 08:43:00,32.0,19.0,-100.00,SW,220,8.0,21.0,58,0.00,,,-99.99,,2013-01-20 13:43:00,
2013-01-20 08:52:00,31.0,18.0,-100.00,SW,224,6.0,21.0,54,0.00,,,-99.99,,2013-01-20 13:52:00,
2013-01-20 09:03:00,31.0,18.0,-100.00,SW,235,8.0,21.0,54,0.00,,,-99.99,,2013-01-20 14:03:00,
2013-01-20 09:12:00,31.0,16.0,-100.00,SW,217,12.0,21.0,50,0.00,,,-99.99,,2013-01-20 14:12:00,
2013-01-20 09:23:00,31.0,16.0,-100.00,WSW,256,12.0,21.0,53,0.00,,,-99.99,,2013-01-20 14:23:00,
2013-01-20 09:33:00,30.0,18.0,-100.00,SW,235,17.0,26.0,55,0.00,,,-99.99,,2013-01-20 14:33:00,
2013-01-20 09:43:00,31.0,18.0,-100.00,SW,235,13.0,26.0,55,0.00,,,-99.99,,2013-01-20 14:43:00,
2013-01-20 09:53:00,31.0,18.0,-100.00,SW,214,12.0,26.0,56,0.00,,,-99.99,,2013-01-20 14:53:00,
2013-01-20 10:03:00,31.0,18.0,-100.00,WSW,252,15.0,26.0,55,0.00,,,-99.99,,2013-01-20 15:03:00,
2013-01-20 10:13:00,31.0,18.0,-100.00,SW,223,13.0,26.0,56,0.00,,,-99.99,,2013-01-20 15:13:00,
2013-01-20 10:23:00,32.0,19.0,-100.00,SW,225,11.0,26.0,59,0.00,,,-99.99,,2013-01-20 15:23:00,
2013-01-20 10:33:00,30.0,19.0,-100.00,SW,224,9.0,26.0,60,0.00,,,-99.99,,2013-01-20 15:33:00,
2013-01-20 10:43:00,31.0,19.0,-100.00,SW,228,7.0,26.0,58,0.00,,,-99.99,,2013-01-20 15:43:00,
2013-01-20 10:53:00,30.0,18.0,-100.00,WSW,256,8.0,26.0,58,0.00,,,-99.99,,2013-01-20 15:53:00,
2013-01-20 11:03:00,30.0,18.0,-100.00,SW,223,11.0,26.0,56,0.00,,,-99.99,,2013-01-20 16:03:00,
2013-01-20 11:12:00,30.0,16.0,-100.00,SW,234,12.0,26.0,54,0.00,,,-99.99,,2013-01-20 16:12:00,
2013-01-20 11:23:00,30.0,16.0,-100.00,WSW,254,11.0,26.0,54,0.00,,,-99.99,,2013-01-20 16:23:00,
2013-01-20 11:33:00,29.0,16.0,-100.00,SW,234,14.0,26.0,55,0.00,,,-99.99,,2013-01-20 16:33:00,
2013-01-20 11:43:00,29.0,16.0,-100.00,SW,217,15.0,26.0,55,0.00,,,-99.99,,2013-01-20 16:43:00,
2013-01-20 11:52:00,29.0,16.0,-100.00,WSW,240,12.0,26.0,56,0.00,,,-99.99,,2013-01-20 16:52:00,
2013-01-20 12:03:00,27.0,16.0,-100.00,WSW,245,13.0,26.0,60,0.00,,,-99.99,,2013-01-20 17:03:00,
2013-01-20 12:13:00,30.0,19.0,-100.00,WSW,238,9.0,26.0,60,0.55,,,-99.99,,2013-01-20 17:13:00,
2013-01-20 12:22:00,28.0,18.0,-100.00,SSW,201,11.0,26.0,63,0.00,,,-99.99,,2013-01-20 17:22:00,
2013-01-20 12:33:00,29.0,18.0,-100.00,SW,234,6.0,26.0,60,0.00,,,-99.99,,2013-01-20 17:33:00,
2013-01-20 12:42:00,29.0,14.0,-100.00,WSW,248,6.0,26.0,53,0.00,,,-99.99,,2013-01-20 17:42:00,
2013-01-20 12:52:00,29.0,14.0,-100.00,SW,235,10.0,26.0,53,0.00,,,-99.99,,2013-01-20 17:52:00,
2013-01-20 13:03:00,29.0,16.0,-100.00,West,262,9.0,26.0,55,0.00,,,-99.99,,2013-01-20 18:03:00,
2013-01-20 13:13:00,29.0,16.0,-100.00,SW,220,9.0,26.0,56,0.00,,,-99.99,,2013-01-20 18:13:00,
2013-01-20 13:23:00,27.0,16.0,-100.00,WSW,237,10.0,26.0,59,0.00,,,-99.99,,2013-01-20 18:23:00,
2013-01-20 13:33:00,27.0,14.0,-100.00,SW,234,11.0,26.0,56,0.00,,,-99.99,,2013-01-20 18:33:00,
2013-01-20 13:43:00,28.0,14.0,-100.00,SW,227,10.0,26.0,54,0.00,,,-99.99,,2013-01-20 18:43:00,
2013-01-20 13:53:00,27.0,14.0,-100.00,SSW,210,12.0,26.0,55,0.00,,,-99.99,,2013-01-20 18:53:00,
2013-01-20 14:03:00,28.0,16.0,-100.00,West,265,9.0,26.0,56,1.69,,,-99.99,,2013-01-20 19:03:00,
2013-01-20 14:12:00,28.0,14.0,-100.00,WSW,240,12.0,26.0,54,0.00,,,-99.99,,2013-01-20 19:12:00,
2013-01-20 14:23:00,27.0,14.0,-100.00,SW,223,8.0,26.0,55,0.00,,,-99.99,,2013-01-20 19:23:00,
2013-01-20 14:33:00,27.0,14.0,-100.00,West,271,7.0,26.0,54,0.00,,,-99.99,,2013-01-20 19:33:00,
2013-01-20 14:43:00,27.0,14.0,-100.00,WSW,247,8.0,26.0,54,0.00,,,-99.99,,2013-01-20 19:43:00,
2013-01-20 14:52:00,28.0,14.0,-100.00,WSW,237,9.0,26.0,55,0.00,,,-99.99,,2013-01-20 19:52:00,
2013-01-20 15:03:00,28.0,16.0,-100.00,WSW,249,9.0,26.0,55,0.00,,,-99.99,,2013-01-20 20:03:00,
2013-01-20 15:12:00,28.0,14.0,-100.00,SSW,211,8.0,26.0,54,0.00,,,-99.99,,2013-01-20 20:12:00,
2013-01-20 15:23:00,28.0,14.0,-100.00,SSW,204,4.0,26.0,53,0.00,,,-99.99,,2013-01-20 20:23:00,
2013-01-20 15:33:00,28.0,14.0,-100.00,WSW,244,6.0,26.0,53,0.00,,,-99.99,,2013-01-20 20:33:00,
2013-01-20 15:42:00,28.0,14.0,-100.00,WSW,247,7.0,26.0,55,0.00,,,-99.99,,2013-01-20 20:42:00,
2013-01-20 15:53:00,30.0,16.0,-100.00,SW,228,4.0,26.0,53,0.00,,,-99.99,,2013-01-20 20:53:00,
2013-01-20 16:04:00,29.0,16.0,-100.00,SW,220,11.0,26.0,55,0.00,,,-99.99,,2013-01-20 21:04:00,
2013-01-20 16:13:00,28.0,16.0,-100.00,WSW,238,9.0,26.0,55,0.00,,,-99.99,,2013-01-20 21:13:00,
2013-01-20 16:23:00,29.0,16.0,-100.00,West,259,7.0,26.0,55,0.00,,,-99.99,,2013-01-20 21:23:00,
2013-01-20 16:33:00,27.0,12.0,-100.00,WSW,241,7.0,26.0,51,0.00,,,-99.99,,2013-01-20 21:33:00,
2013-01-20 16:43:00,27.0,12.0,-100.00,SW,234,7.0,26.0,53,0.00,,,-99.99,,2013-01-20 21:43:00,
2013-01-20 16:53:00,26.0,12.0,-100.00,SW,227,9.0,26.0,53,0.00,,,-99.99,,2013-01-20 21:53:00,
2013-01-20 17:03:00,27.0,14.0,-100.00,WSW,252,9.0,26.0,53,0.00,,,-99.99,,2013-01-20 22:03:00,
2013-01-20 17:13:00,28.0,14.0,-100.00,SW,225,9.0,26.0,53,0.00,,,-99.99,,2013-01-20 22:13:00,
2013-01-20 17:23:00,28.0,14.0,-100.00,SW,218,9.0,26.0,54,0.00,,,-99.99,,2013-01-20 22:23:00,
2013-01-20 17:33:00,29.0,16.0,-100.00,West,268,6.0,26.0,55,0.00,,,-99.99,,2013-01-20 22:33:00,
2013-01-20 17:43:00,28.0,16.0,-100.00,SW,217,4.0,26.0,56,0.00,,,-99.99,,2013-01-20 22:43:00,
2013-01-20 17:52:00,28.0,16.0,-100.00,WSW,247,6.0,26.0,58,0.00,,,-99.99,,2013-01-20 22:52:00,
2013-01-20 18:03:00,26.0,14.0,-100.00,WSW,254,6.0,26.0,58,0.00,,,-99.99,,2013-01-20 23:03:00,
2013-01-20 18:13:00,26.0,14.0,-100.00,WSW,240,7.0,26.0,59,0.00,,,-99.99,,2013-01-20 23:13:00,
2013-01-20 18:23:00,27.0,16.0,-100.00,SSW,204,5.0,26.0,59,0.00,,,-99.99,,2013-01-20 23:23:00,
2013-01-20 18:33:00,27.0,16.0,-100.00,WSW,238,5.0,26.0,60,0.00,,,-99.99,,2013-01-20 23:33:00,
2013-01-20 18:43:00,27.0,16.0,-100.00,West,259,6.0,26.0,60,0.00,,,-99.99,,2013-01-20 23:43:00,
2013-01-20 18:53:00,27.0,16.0,-100.00,SW,227,4.0,26.0,60,0.00,,,-99.99,,2013-01-20 23:53:00,
2013-01-20 19:03:00,26.0,16.0,-100.00,SW,232,5.0,26.0,62,0.00,,,-99.99,,2013-01-21 00:03:00,
2013-01-20 19:13:00,26.0,14.0,-100.00,South,190,6.0,26.0,60,0.00,,,-99.99,,2013-01-21 00:13:00,
2013-01-20 19:23:00,26.0,16.0,-100.00,SW,234,6.0,26.0,60,0.00,,,-99.99,,2013-01-21 00:23:00,
2013-01-20 19:33:00,27.0,16.0,-100.00,SSW,211,6.0,26.0,60,0.00,,,-99.99,,2013-01-21 00:33:00,
2013-01-20 19:43:00,27.0,16.0,-100.00,SW,217,6.0,26.0,60,0.00,,,-99.99,,2013-01-21 00:43:00,
2013-01-20 19:53:00,27.0,16.0,-100.00,WSW,249,5.0,26.0,62,0.00,,,-99.99,,2013-01-21 00:53:00,
2013-01-20 20:03:00,25.0,14.0,-100.00,West,261,4.0,26.0,60,0.00,,,-99.99,,2013-01-21 01:03:00,
2013-01-20 20:13:00,26.0,14.0,-100.00,WSW,244,6.0,26.0,60,0.00,,,-99.99,,2013-01-21 01:13:00,
2013-01-20 20:23:00,25.0,14.0,-100.00,SSW,200,4.0,26.0,60,0.00,,,-99.99,,2013-01-21 01:23:00,
2013-01-20 20:33:00,27.0,16.0,-100.00,SW,230,5.0,26.0,63,0.00,,,-99.99,,2013-01-21 01:33:00,
2013-01-20 20:43:00,27.0,18.0,-100.00,SW,218,5.0,26.0,64,0.00,,,-99.99,,2013-01-21 01:43:00,
2013-01-20 20:53:00,25.0,14.0,-100.00,SW,216,4.0,26.0,62,0.00,,,-99.99,,2013-01-21 01:53:00,
2013-01-20 21:03:00,24.0,14.0,-100.00,WSW,254,6.0,26.0,63,0.00,,,-99.99,,2013-01-21 02:03:00,
2013-01-20 21:13:00,24.0,14.0,-100.00,WSW,254,6.0,26.0,63,0.00,,,-99.99,,2013-01-21 02:13:00,
2013-01-20 21:23:00,25.0,16.0,-100.00,SW,231,3.0,26.0,66,0.00,,,-99.99,,2013-01-21 02:23:00,
2013-01-20 21:33:00,26.0,16.0,-100.00,SW,232,4.0,26.0,64,0.00,,,-99.99,,2013-01-21 02:33:00,
2013-01-20 21:43:00,26.0,16.0,-100.00,WSW,238,6.0,26.0,64,0.00,,,-99.99,,2013-01-21 02:43:00,
2013-01-20 21:53:00,25.0,16.0,-100.00,SW,224,6.0,26.0,64,0.00,,,-99.99,,2013-01-21 02:53:00,
2013-01-20 22:03:00,24.0,14.0,-100.00,SW,232,4.0,26.0,63,0.00,,,-99.99,,2013-01-21 03:03:00,
2013-01-20 22:13:00,26.0,18.0,-100.00,SW,225,4.0,26.0,66,0.00,,,-99.99,,2013-01-21 03:13:00,
2013-01-20 22:23:00,25.0,16.0,-100.00,WSW,242,3.0,26.0,66,0.00,,,-99.99,,2013-01-21 03:23:00,
2013-01-20 22:33:00,24.0,14.0,-100.00,WSW,251,3.0,26.0,64,0.00,,,-99.99,,2013-01-21 03:33:00,
2013-01-20 22:43:00,23.0,16.0,-100.00,WSW,242,2.0,26.0,67,0.00,,,-99.99,,2013-01-21 03:43:00,
2013-01-20 22:53:00,26.0,16.0,-100.00,WSW,241,2.0,26.0,66,0.00,,,-99.99,,2013-01-21 03:53:00,
2013-01-20 23:03:00,24.0,14.0,-100.00,WSW,256,3.0,26.0,64,0.00,,,-99.99,,2013-01-21 04:03:00,
2013-01-20 23:13:00,24.0,14.0,-100.00,SW,227,2.0,26.0,64,0.00,,,-99.99,,2013-01-21 04:13:00,
2013-01-20 23:23:00,26.0,18.0,-100.00,SW,230,2.0,26.0,67,0.00,,,-99.99,,2013-01-21 04:23:00,
2013-01-20 23:33:00,25.0,18.0,-100.00,SW,230,3.0,26.0,67,0.00,,,-99.99,,2013-01-21 04:33:00,
2013-01-20 23:43:00,23.0,14.0,-100.00,SSW,207,2.0,26.0,66,0.00,,,-99.99,,2013-01-21 04:43:00,
2013-01-20 23:53:00,23.0,14.0,-100.00,SW,232,4.0,26.0,66,0.00,,,-99.99,,2013-01-21 04:53:00,